Time,TemperatureF,DewpointF,PressureIn,WindDirection,WindDirectionDegrees,WindSpeedMPH,WindSpeedGustMPH,Humidity,HourlyPrecipIn,Conditions,Clouds,dailyrainin,SoftwareType,DateUTC
2013-03-12 00:11:00,56.7,55.0,29.85,SE,138,0.0,2.0,92,0.05,,,0.09,weatherlink.com 1.10,2013-03-12 04:11:00,
2013-03-12 01:26:00,56.5,55.0,29.81,SE,128,0.0,3.0,94,0.04,,,0.14,weatherlink.com 1.10,2013-03-12 05:26:00,
2013-03-12 01:41:00,56.6,55.0,29.80,SSE,152,0.0,4.0,95,0.02,,,0.15,weatherlink.com 1.10,2013-03-12 05:41:00,
2013-03-12 01:56:00,56.7,55.0,29.79,WSW,257,0.0,3.0,95,0.03,,,0.16,weatherlink.com 1.10,2013-03-12 05:56:00,
2013-03-12 02:11:00,57.0,56.0,29.79,South,180,0.0,5.0,95,0.04,,,0.00,weatherlink.com 1.10,2013-03-12 06:11:00,
2013-03-12 02:26:00,57.2,56.0,29.79,South,175,3.0,4.0,96,0.05,,,0.02,weatherlink.com 1.10,2013-03-12 06:26:00,
2013-03-12 02:41:00,57.5,56.0,29.79,East,99,1.0,4.0,96,0.07,,,0.05,weatherlink.com 1.10,2013-03-12 06:41:00,
2013-03-12 02:56:00,57.5,56.0,29.78,South,171,0.0,3.0,96,0.08,,,0.07,weatherlink.com 1.10,2013-03-12 06:56:00,
2013-03-12 03:11:00,57.6,57.0,29.78,SSW,192,0.0,3.0,96,0.08,,,0.09,weatherlink.com 1.10,2013-03-12 07:11:00,
2013-03-12 03:26:00,57.8,57.0,29.78,SW,229,0.0,2.0,96,0.15,,,0.17,weatherlink.com 1.10,2013-03-12 07:26:00,
2013-03-12 03:41:00,57.8,57.0,29.77,SW,229,0.0,3.0,97,0.24,,,0.29,weatherlink.com 1.10,2013-03-12 07:41:00,
2013-03-12 03:56:00,57.8,57.0,29.77,South,173,0.0,2.0,97,0.30,,,0.37,weatherlink.com 1.10,2013-03-12 07:56:00,
2013-03-12 04:26:00,58.0,57.0,29.75,SW,215,0.0,4.0,97,0.30,,,0.48,weatherlink.com 1.10,2013-03-12 08:26:00,
2013-03-12 04:41:00,58.0,57.0,29.74,SSW,205,1.0,7.0,97,0.24,,,0.53,weatherlink.com 1.10,2013-03-12 08:41:00,
2013-03-12 04:56:00,58.1,57.0,29.74,SSW,198,2.0,7.0,97,0.22,,,0.59,weatherlink.com 1.10,2013-03-12 08:56:00,
2013-03-12 05:11:00,58.1,57.0,29.73,SW,234,1.0,6.0,97,0.24,,,0.65,weatherlink.com 1.10,2013-03-12 09:11:00,
2013-03-12 05:26:00,58.1,57.0,29.73,SW,229,5.0,7.0,97,0.18,,,0.67,weatherlink.com 1.10,2013-03-12 09:26:00,
2013-03-12 05:41:00,58.1,57.0,29.73,SSE,167,3.0,7.0,97,0.20,,,0.73,weatherlink.com 1.10,2013-03-12 09:41:00,
2013-03-12 05:56:00,58.1,57.0,29.73,SSW,194,6.0,8.0,97,0.15,,,0.75,weatherlink.com 1.10,2013-03-12 09:56:00,
2013-03-12 06:11:00,58.0,57.0,29.73,WSW,257,0.0,8.0,97,0.11,,,0.77,weatherlink.com 1.10,2013-03-12 10:11:00,
2013-03-12 06:26:00,58.0,57.0,29.74,WSW,237,2.0,8.0,97,0.11,,,0.78,weatherlink.com 1.10,2013-03-12 10:26:00,
2013-03-12 06:41:00,58.0,57.0,29.74,South,172,7.0,9.0,97,0.06,,,0.79,weatherlink.com 1.10,2013-03-12 10:41:00,
2013-03-12 06:56:00,58.0,57.0,29.74,West,268,1.0,7.0,97,0.05,,,0.80,weatherlink.com 1.10,2013-03-12 10:56:00,
2013-03-12 07:26:00,58.0,57.0,29.75,SW,226,1.0,6.0,97,0.02,,,0.80,weatherlink.com 1.10,2013-03-12 11:26:00,
2013-03-12 07:41:00,58.1,57.0,29.75,SW,236,2.0,9.0,97,0.01,,,0.80,weatherlink.com 1.10,2013-03-12 11:41:00,
2013-03-12 07:56:00,58.1,57.0,29.76,WSW,244,0.0,7.0,97,0.00,,,0.80,weatherlink.com 1.10,2013-03-12 11:56:00,
2013-03-12 08:26:00,58.3,58.0,29.76,ESE,115,0.0,6.0,97,0.00,,,0.80,weatherlink.com 1.10,2013-03-12 12:26:00,
2013-03-12 08:41:00,58.3,58.0,29.77,South,170,1.0,8.0,97,0.00,,,0.80,weatherlink.com 1.10,2013-03-12 12:41:00,
2013-03-12 09:11:00,58.6,58.0,29.77,WSW,254,5.0,5.0,97,0.00,,,0.80,weatherlink.com 1.10,2013-03-12 13:11:00,
2013-03-12 09:26:00,58.7,58.0,29.77,SW,221,0.0,6.0,96,0.00,,,0.80,weatherlink.com 1.10,2013-03-12 13:26:00,
2013-03-12 09:41:00,58.9,58.0,29.78,WSW,248,0.0,5.0,96,0.00,,,0.80,weatherlink.com 1.10,2013-03-12 13:41:00,
2013-03-12 09:56:00,59.0,58.0,29.78,SW,225,1.0,4.0,96,0.00,,,0.80,weatherlink.com 1.10,2013-03-12 13:56:00,
2013-03-12 10:27:00,59.6,58.0,29.79,West,263,1.0,4.0,94,0.00,,,0.80,weatherlink.com 1.10,2013-03-12 14:27:00,
2013-03-12 10:41:00,59.6,58.0,29.80,WSW,254,0.0,2.0,93,0.00,,,0.80,weatherlink.com 1.10,2013-03-12 14:41:00,
2013-03-12 10:57:00,59.9,57.0,29.80,SW,215,4.0,6.0,91,0.00,,,0.80,weatherlink.com 1.10,2013-03-12 14:57:00,
2013-03-12 11:12:00,60.5,57.0,29.80,SW,230,0.0,3.0,89,0.00,,,0.80,weatherlink.com 1.10,2013-03-12 15:12:00,
2013-03-12 11:27:00,62.4,57.0,29.80,West,259,0.0,6.0,82,0.00,,,0.80,weatherlink.com 1.10,2013-03-12 15:27:00,
2013-03-12 11:42:00,64.0,57.0,29.80,NW,312,0.0,4.0,79,0.00,,,0.80,weatherlink.com 1.10,2013-03-12 15:42:00,
2013-03-12 11:57:00,63.7,54.0,29.80,West,263,1.0,6.0,71,0.00,,,0.80,weatherlink.com 1.10,2013-03-12 15:57:00,
2013-03-12 12:12:00,64.7,55.0,29.80,West,270,3.0,5.0,71,0.00,,,0.80,weatherlink.com 1.10,2013-03-12 16:12:00,
2013-03-12 12:27:00,63.4,54.0,29.81,WSW,258,0.0,5.0,71,0.00,,,0.80,weatherlink.com 1.10,2013-03-12 16:27:00,
2013-03-12 12:42:00,64.3,53.0,29.80,WSW,257,0.0,4.0,68,0.00,,,0.80,weatherlink.com 1.10,2013-03-12 16:42:00,
2013-03-12 12:57:00,65.0,54.0,29.80,West,265,0.0,3.0,68,0.00,,,0.80,weatherlink.com 1.10,2013-03-12 16:57:00,
2013-03-12 13:12:00,65.6,53.0,29.80,WNW,297,1.0,5.0,63,0.01,,,0.81,weatherlink.com 1.10,2013-03-12 17:12:00,
2013-03-12 13:27:00,67.4,54.0,29.79,South,184,1.0,4.0,62,0.01,,,0.81,weatherlink.com 1.10,2013-03-12 17:27:00,
2013-03-12 13:42:00,68.3,50.0,29.79,WNW,296,0.0,9.0,53,0.01,,,0.81,weatherlink.com 1.10,2013-03-12 17:42:00,
2013-03-12 13:57:00,68.8,51.0,29.78,North,355,5.0,5.0,54,0.01,,,0.81,weatherlink.com 1.10,2013-03-12 17:57:00,
2013-03-12 14:12:00,69.3,52.0,29.78,WNW,303,1.0,5.0,54,0.00,,,0.81,weatherlink.com 1.10,2013-03-12 18:12:00,
2013-03-12 14:27:00,69.1,51.0,29.77,NNW,333,2.0,6.0,53,0.00,,,0.81,weatherlink.com 1.10,2013-03-12 18:27:00,
2013-03-12 14:42:00,69.1,50.0,29.78,West,264,3.0,4.0,51,0.00,,,0.81,weatherlink.com 1.10,2013-03-12 18:42:00,
2013-03-12 14:57:00,68.3,50.0,29.78,WNW,288,0.0,5.0,52,0.00,,,0.81,weatherlink.com 1.10,2013-03-12 18:57:00,
2013-03-12 15:12:00,68.3,49.0,29.78,WNW,299,0.0,9.0,50,0.00,,,0.81,weatherlink.com 1.10,2013-03-12 19:12:00,
2013-03-12 15:27:00,68.1,48.0,29.78,West,275,2.0,7.0,49,0.00,,,0.81,weatherlink.com 1.10,2013-03-12 19:27:00,
2013-03-12 15:42:00,69.6,47.0,29.78,WNW,282,4.0,6.0,45,0.00,,,0.81,weatherlink.com 1.10,2013-03-12 19:42:00,
2013-03-12 15:57:00,68.8,49.0,29.78,NW,307,0.0,4.0,49,0.00,,,0.81,weatherlink.com 1.10,2013-03-12 19:57:00,
2013-03-12 16:12:00,68.8,46.0,29.78,NW,311,0.0,6.0,44,0.00,,,0.81,weatherlink.com 1.10,2013-03-12 20:12:00,
2013-03-12 16:27:00,68.9,45.0,29.78,SSW,207,3.0,8.0,42,0.00,,,0.81,weatherlink.com 1.10,2013-03-12 20:27:00,
2013-03-12 16:42:00,69.6,45.0,29.77,NNE,19,2.0,5.0,42,0.00,,,0.81,weatherlink.com 1.10,2013-03-12 20:42:00,
2013-03-12 16:57:00,69.1,45.0,29.78,West,281,0.0,5.0,42,0.00,,,0.81,weatherlink.com 1.10,2013-03-12 20:57:00,
2013-03-12 17:12:00,68.9,44.0,29.79,North,355,0.0,4.0,41,0.00,,,0.81,weatherlink.com 1.10,2013-03-12 21:12:00,
2013-03-12 17:42:00,68.4,38.0,29.80,West,264,0.0,5.0,33,0.00,,,0.81,weatherlink.com 1.10,2013-03-12 21:42:00,
2013-03-12 17:57:00,67.4,34.0,29.80,NE,45,0.0,8.0,29,0.00,,,0.81,weatherlink.com 1.10,2013-03-12 21:57:00,
2013-03-12 18:12:00,65.8,34.0,29.80,WSW,258,1.0,7.0,31,0.00,,,0.81,weatherlink.com 1.10,2013-03-12 22:12:00,
2013-03-12 18:27:00,65.0,31.0,29.81,NNW,338,0.0,5.0,28,0.00,,,0.81,weatherlink.com 1.10,2013-03-12 22:27:00,
2013-03-12 18:42:00,64.2,31.0,29.82,North,355,0.0,4.0,29,0.00,,,0.81,weatherlink.com 1.10,2013-03-12 22:42:00,
2013-03-12 18:57:00,63.1,29.0,29.82,East,94,2.0,7.0,28,0.00,,,0.81,weatherlink.com 1.10,2013-03-12 22:57:00,
2013-03-12 19:12:00,62.3,31.0,29.84,NNW,329,0.0,3.0,31,0.00,,,0.81,weatherlink.com 1.10,2013-03-12 23:12:00,
2013-03-12 19:27:00,61.2,29.0,29.85,NNW,338,0.0,6.0,29,0.00,,,0.81,weatherlink.com 1.10,2013-03-12 23:27:00,
2013-03-12 19:42:00,60.4,29.0,29.86,NE,39,0.0,2.0,31,0.00,,,0.81,weatherlink.com 1.10,2013-03-12 23:42:00,
2013-03-12 19:57:00,59.6,31.0,29.87,West,270,2.0,2.0,34,0.00,,,0.81,weatherlink.com 1.10,2013-03-12 23:57:00,
2013-03-12 20:12:00,59.0,31.0,29.87,NNE,18,0.0,5.0,35,0.00,,,0.81,weatherlink.com 1.10,2013-03-13 00:12:00,
2013-03-12 20:27:00,58.4,33.0,29.88,NW,326,0.0,4.0,38,0.00,,,0.81,weatherlink.com 1.10,2013-03-13 00:27:00,
2013-03-12 20:42:00,57.6,31.0,29.88,NE,52,1.0,2.0,37,0.00,,,0.81,weatherlink.com 1.10,2013-03-13 00:42:00,
2013-03-12 20:57:00,57.0,27.0,29.90,North,5,3.0,19.0,32,0.00,,,0.81,weatherlink.com 1.10,2013-03-13 00:57:00,
2013-03-12 21:12:00,56.3,27.0,29.90,ENE,64,0.0,4.0,33,0.00,,,0.81,weatherlink.com 1.10,2013-03-13 01:12:00,
2013-03-12 21:27:00,55.4,26.0,29.91,NNE,13,3.0,7.0,32,0.00,,,0.81,weatherlink.com 1.10,2013-03-13 01:27:00,
2013-03-12 21:43:00,55.0,23.0,29.91,ENE,70,2.0,6.0,29,0.00,,,0.81,weatherlink.com 1.10,2013-03-13 01:43:00,
2013-03-12 21:58:00,54.1,24.0,29.92,NNE,13,0.0,3.0,31,0.00,,,0.81,weatherlink.com 1.10,2013-03-13 01:58:00,
2013-03-12 22:13:00,53.5,25.0,29.93,NW,316,1.0,5.0,33,0.00,,,0.81,weatherlink.com 1.10,2013-03-13 02:13:00,
2013-03-12 22:28:00,52.8,28.0,29.93,NNE,19,4.0,4.0,38,0.00,,,0.81,weatherlink.com 1.10,2013-03-13 02:28:00,
2013-03-12 22:43:00,52.0,28.0,29.93,West,280,3.0,5.0,39,0.00,,,0.81,weatherlink.com 1.10,2013-03-13 02:43:00,
2013-03-12 22:58:00,51.4,29.0,29.94,North,5,1.0,4.0,42,0.00,,,0.81,weatherlink.com 1.10,2013-03-13 02:58:00,
2013-03-12 23:13:00,50.8,30.0,29.95,WNW,290,0.0,5.0,45,0.00,,,0.81,weatherlink.com 1.10,2013-03-13 03:13:00,
2013-03-12 23:28:00,50.1,30.0,29.95,WNW,300,0.0,3.0,47,0.00,,,0.81,weatherlink.com 1.10,2013-03-13 03:28:00,
2013-03-12 23:43:00,49.5,31.0,29.96,NE,36,0.0,5.0,49,0.00,,,0.81,weatherlink.com 1.10,2013-03-13 03:43:00,
2013-03-12 23:58:00,49.1,31.0,29.96,NNE,22,0.0,2.0,51,0.00,,,0.81,weatherlink.com 1.10,2013-03-13 03:58:00,